< Cyclone 199210 1993 Season Cyclone 199302 >
Cyclone 199301 (KEN)
General InformationDetailed Track InformationTrack Information on Google MapsList of All Images || ResourceGoogle EarthGE AnimationAtom FeedGeoJSON
Detalied Best Track Wind (Time Zone = UTC)
Year Month Day Hour Lat. Long. Wind (kt) Gust (kt) Direc. of Major Storm Axis Radius of Major Storm Axis (nm) Radius of Minor Storm Axis (nm) Direc. of Major Gale Axis Radius of Major Gale Axis (nm) Radius of Minor Gale Axis (nm) Image
1992 12 18 00 -10.6 99.7 27 -1 symmetric - - symmetric - - Image
1992 12 18 06 -11.2 99.5 27 -1 symmetric - - symmetric - - Image
1992 12 18 12 -11.6 98.9 27 -1 symmetric - - symmetric - - Image
1992 12 18 18 -11.9 98.2 35 -1 symmetric - - symmetric - - Image
1992 12 19 00 -12.2 97.5 35 -1 symmetric - - symmetric - - Image
1992 12 19 03 -12.4 97.2 35 -1 symmetric - - symmetric - - Image
1992 12 19 06 -12.6 96.9 41 -1 symmetric - - symmetric - - Image
1992 12 19 09 -12.8 96.6 41 -1 symmetric - - symmetric - - Image
1992 12 19 12 -13.1 96.2 41 -1 symmetric - - symmetric - - Image
1992 12 19 18 -13.4 95.6 35 -1 symmetric - - symmetric - - Image
1992 12 20 00 -13.8 94.9 35 -1 symmetric - - symmetric - - Image
1992 12 20 06 -14.3 94.2 35 -1 symmetric - - symmetric - - Image
1992 12 20 12 -14.8 93.4 35 -1 symmetric - - symmetric - - Image
1992 12 20 18 -15.4 92.5 35 -1 symmetric - - symmetric - - Image
1992 12 21 00 -15.7 91.5 35 -1 symmetric - - symmetric - - Image
1992 12 21 06 -15.7 90.6 35 -1 symmetric - - symmetric - - Image
1992 12 21 12 -15.6 90.0 35 -1 symmetric - - symmetric - - Image
1992 12 21 18 -15.5 89.3 35 -1 symmetric - - symmetric - - Image
1992 12 22 00 -15.2 88.6 35 -1 symmetric - - symmetric - - Image
1992 12 22 06 -15.0 87.7 27 -1 symmetric - - symmetric - - Image
1992 12 22 12 -14.5 86.7 27 -1 symmetric - - symmetric - - Image
1992 12 22 18 -14.1 85.6 27 -1 symmetric - - symmetric - - Image
1992 12 23 00 -13.6 84.5 27 -1 symmetric - - symmetric - - Image
< Cyclone 199210 1993 Season Cyclone 199302 >

Help